[[{"header":{"parameterUnit":"m.s-1","parameterCategory":1,"la1":30.2991,"la2":30.254,"lo1":-89.0895,"lo2":-89.0444,"dy":0.0017,"dx":0.0017,"nx":28,"ny":28,"refTime":"2024-02-01T03:00:00:Z","depth":0,"parameterNumber":2,"parameterNumberName":"U-component_of_WINDS"},"data":[0,0,0,0,0,0,0,0,0,0,0,0,0,0,0,0,0,0,0,0,0,0,0,0,0,0,0,0,0,0,0,0,0,0,0,0,0,0,0,0,0,0,0,0,0,0,0,0,0,0,0,0,0,0,0,0,0,0,-0.8014,-0.8015,0,-0.8093,-0.8094,-0.8095,-0.8095,-0.8094,-0.8093,-0.8092,-0.8175,-0.8178,-0.8182,0,0,0,0,0,0,0,0,0,0,0,0,0,-0.7867,-0.787,-0.8014,-0.8015,-0.8016,-0.8093,-0.8094,-0.8095,-0.8095,-0.8094,-0.8092,-0.8091,-0.8174,-0.8178,-0.8182,0,0,0,0,0,0,0,0,0,0,0,0,0,-0.7937,-0.7871,-0.8014,-0.8025,-0.8027,-0.8093,-0.8094,-0.8095,-0.8095,-0.8093,-0.8092,-0.809,-0.8173,-0.8178,-0.8182,-0.8243,0,0,-0.8197,-0.8199,0,0,0,0,0,0,0,0,-0.7933,-0.7943,-0.8023,-0.8025,-0.8027,-0.8082,-0.8073,-0.8145,-0.8095,-0.8069,-0.8092,-0.809,-0.8146,-0.8153,-0.8171,-0.8247,-0.8251,-0.8197,-0.82,-0.8202,-0.8204,0,0,0,0,0,0,0,-0.7928,-0.7939,-0.8046,-0.8024,-0.8026,-0.8028,-0.8036,-0.8087,-0.8116,-0.8072,-0.8072,-0.8081,-0.8147,-0.8166,-0.8173,-0.8252,-0.8197,-0.8202,-0.8205,-0.8206,-0.8383,-0.8385,0,0,0,0,0,0,-0.7921,-0.7935,-0.8043,-0.8048,-0.7975,-0.8031,-0.8041,-0.8066,-0.8115,-0.8121,-0.8082,-0.808,-0.8159,-0.8167,-0.8176,-0.8251,-0.8202,-0.8207,-0.821,-0.8381,-0.8384,-0.8386,0,0,0,0,0,0,-0.7918,-0.793,-0.804,-0.7992,-0.8006,-0.8036,-0.8064,-0.8069,-0.8088,-0.8123,-0.8128,-0.8097,-0.8158,-0.8169,-0.8227,-0.8254,-0.8209,-0.8213,-0.8379,-0.8382,-0.8385,-0.8401,0,0,0,0,0,0,-0.7913,-0.7929,-0.7952,-0.7992,-0.8008,-0.8088,-0.8066,-0.8071,-0.8096,-0.8095,-0.8138,-0.8144,-0.8158,-0.8219,-0.8231,-0.826,-0.8217,-0.8377,-0.8381,-0.8384,-0.8399,-0.8404,-0.8409,0,0,0,0,0,-0.7908,-0.7954,-0.7953,-0.7966,-0.8037,-0.809,-0.8099,-0.8113,-0.8098,-0.8122,-0.8144,-0.8142,-0.8249,-0.8225,-0.8239,-0.8269,-0.8375,-0.838,-0.8384,-0.8396,-0.8403,-0.8409,0,0,0,0,0,0,-0.7917,-0.7959,-0.7959,-0.8019,-0.805,-0.8089,-0.8119,-0.812,-0.8158,-0.8155,-0.8172,-0.8182,-0.824,-0.826,-0.8233,-0.8331,-0.8311,-0.8318,-0.8316,-0.8323,-0.8328,-0.8322,-0.8221,0,0,0,0,0,-0.7925,-0.7964,-0.7999,-0.8049,-0.8065,-0.8089,-0.8113,-0.8121,-0.8155,-0.8169,-0.8196,-0.823,-0.8271,-0.8298,-0.8338,-0.8402,-0.8412,-0.8429,-0.8435,-0.8439,-0.8445,-0.8481,-0.849,-0.8399,-0.8399,-0.8399,0,0,-0.7944,-0.7972,-0.7995,-0.8051,-0.8077,-0.8117,-0.8101,-0.8144,-0.8175,-0.8176,-0.8232,-0.8252,-0.8292,-0.8353,-0.8381,-0.8372,-0.8472,-0.8444,-0.8447,-0.8451,-0.8486,-0.8495,-0.8503,-0.8402,-0.8401,-0.8401,0,0,-0.7999,-0.8023,-0.8068,-0.8094,-0.8132,-0.8149,-0.8159,-0.8199,-0.8212,-0.8268,-0.827,-0.8308,-0.8378,-0.8406,-0.843,-0.8496,-0.8496,-0.8509,-0.8537,-0.8573,-0.858,-0.8586,-0.8611,-0.8619,-0.8515,-0.8515,-0.8515,0,-0.8017,-0.8077,-0.8091,-0.8134,-0.8159,-0.8161,-0.8207,-0.8232,-0.8283,-0.83,-0.8289,-0.8378,-0.8405,-0.8473,-0.8489,-0.8508,-0.8522,-0.8504,-0.8577,-0.8584,-0.859,-0.8614,-0.8623,-0.8516,-0.8516,-0.8516,-0.8516,0,-0.8099,-0.814,-0.8172,-0.8219,-0.8248,-0.8293,-0.8314,-0.8341,-0.8347,-0.8365,-0.8423,-0.8455,-0.8502,-0.8519,-0.8525,-0.8588,-0.8581,-0.8573,-0.8553,-0.86,-0.8623,-0.8632,-0.8518,-0.8517,-0.8517,-0.8517,0,0,-0.8161,-0.8216,-0.8227,-0.8249,-0.8292,-0.8325,-0.8371,-0.8416,-0.8439,-0.8474,-0.8514,-0.8573,-0.8567,-0.8593,-0.8603,-0.8634,-0.8686,-0.8623,-0.8624,-0.8634,-0.8759,-0.8765,-0.8775,-0.8686,-0.8688,-0.8689,-0.8756,0,-0.8221,-0.83,-0.8314,-0.8383,-0.8423,-0.8426,-0.8466,-0.8497,-0.8515,-0.8552,-0.8573,-0.8615,-0.8603,-0.8619,-0.865,-0.8673,-0.8711,-0.8668,-0.8724,-0.8726,-0.8714,-0.8786,-0.8793,-0.8854,-0.8764,-0.8766,-0.8767,0,-0.8301,-0.8337,-0.8411,-0.845,-0.8467,-0.8502,-0.8545,-0.858,-0.8616,-0.8627,-0.8657,-0.8664,-0.8712,-0.869,-0.8757,-0.8728,-0.8752,-0.8767,-0.8769,-0.8776,-0.8749,-0.8795,-0.8873,-0.8883,-0.8781,-0.878,-0.8779,0,-0.834,-0.8407,-0.846,-0.8479,-0.8525,-0.855,-0.8571,-0.8606,-0.8632,-0.867,-0.8687,-0.8731,-0.8755,-0.8789,-0.8807,-0.8789,-0.8874,-0.8853,-0.8886,-0.8885,-0.8904,-0.8903,-0.8988,-0.8918,-0.8918,-0.8918,-0.8918,0,-0.8406,-0.8451,-0.8478,-0.8511,-0.8562,-0.8578,-0.8628,-0.8649,-0.868,-0.8717,-0.8723,-0.8759,-0.8781,-0.882,-0.8835,-0.8889,-0.89,-0.8911,-0.8915,-0.8911,-0.891,-0.8927,-0.8923,-0.892,-0.892,-0.8919,-0.8919,0,-0.8458,-0.8478,-0.8536,-0.8575,-0.8586,-0.8622,-0.8656,-0.8689,-0.8707,-0.8754,-0.8767,-0.8796,-0.8842,-0.8863,-0.8921,-0.8931,-0.8993,-0.8994,-0.8981,-0.8982,-0.9014,-0.9011,-0.9114,-0.9129,-0.9049,-0.905,-0.905,0,-0.8499,-0.8533,-0.8576,-0.8601,-0.8622,-0.8663,-0.869,-0.8707,-0.8735,-0.878,-0.8807,-0.8853,-0.8891,-0.8966,-0.8993,-0.9037,-0.9039,-0.9072,-0.9046,-0.9041,-0.904,-0.9038,-0.9042,-0.9077,-0.9077,-0.9078,-0.9079,0,-0.8569,-0.8578,-0.8616,-0.8657,-0.8689,-0.8723,-0.8757,-0.8777,-0.88,-0.8832,-0.8879,-0.8908,-0.8967,-0.9013,-0.9059,-0.9082,-0.9085,-0.9087,-0.9097,-0.9093,-0.9085,-0.9091,-0.8994,-0.9084,-0.9084,-0.9083,-0.9083,-0.9083,-0.8618,-0.8649,-0.8684,-0.8726,-0.8753,-0.8785,-0.8817,-0.8839,-0.8878,-0.8927,-0.8935,-0.8985,-0.9022,-0.9084,-0.9109,-0.9149,-0.9142,-0.9156,-0.916,-0.9163,-0.9165,-0.9078,-0.9158,-0.9158,-0.9157,-0.9157,-0.9157,0,-0.8689,-0.8712,-0.8751,-0.8797,-0.8831,-0.8829,-0.8867,-0.8895,-0.8939,-0.8973,-0.901,-0.9064,-0.9109,-0.914,-0.9186,-0.9213,-0.9215,-0.9224,-0.9223,-0.9228,-0.9169,-0.9156,-0.9221,-0.9221,-0.9221,-0.9221,-0.9221,-0.9221,-0.873,-0.8783,-0.8796,-0.8863,-0.8886,-0.8934,-0.8956,-0.8985,-0.9012,-0.9072,-0.9109,-0.9129,-0.9162,-0.921,-0.9252,-0.926,-0.9277,-0.9287,-0.9294,-0.9239,-0.9232,-0.9226,-0.9214,-0.929,-0.929,-0.935,-0.9351,-0.9351]},{"header":{"parameterUnit":"m.s-1","parameterCategory":1,"la1":30.2991,"la2":30.254,"lo1":-89.0895,"lo2":-89.0444,"dy":0.0017,"dx":0.0017,"nx":28,"ny":28,"refTime":"2024-02-01T03:00:00:Z","depth":0,"parameterNumber":3,"parameterNumberName":"V-component_of_WINDS"},"data":[0,0,0,0,0,0,0,0,0,0,0,0,0,0,0,0,0,0,0,0,0,0,0,0,0,0,0,0,0,0,0,0,0,0,0,0,0,0,0,0,0,0,0,0,0,0,0,0,0,0,0,0,0,0,0,0,0,0,-0.2353,-0.2354,0,-0.2375,-0.2376,-0.2376,-0.2384,-0.2384,-0.2384,-0.2384,-0.2404,-0.2405,-0.2406,0,0,0,0,0,0,0,0,0,0,0,0,0,-0.2316,-0.2316,-0.2353,-0.2354,-0.2354,-0.2375,-0.2376,-0.2376,-0.2384,-0.2384,-0.2384,-0.2384,-0.2404,-0.2405,-0.2406,0,0,0,0,0,0,0,0,0,0,0,0,0,-0.2334,-0.2317,-0.2353,-0.236,-0.2361,-0.2375,-0.2376,-0.2376,-0.2384,-0.2384,-0.2384,-0.2384,-0.2404,-0.2405,-0.2406,-0.2414,0,0,-0.2409,-0.2409,0,0,0,0,0,0,0,0,-0.2333,-0.2336,-0.2359,-0.236,-0.2361,-0.2377,-0.237,-0.2389,-0.2384,-0.2375,-0.2384,-0.2383,-0.2395,-0.2397,-0.2401,-0.2415,-0.2416,-0.2409,-0.2409,-0.241,-0.241,0,0,0,0,0,0,0,-0.2332,-0.2335,-0.2362,-0.2359,-0.2361,-0.2362,-0.2364,-0.2374,-0.2385,-0.2376,-0.2377,-0.2379,-0.2396,-0.24,-0.2402,-0.2416,-0.2409,-0.2409,-0.241,-0.241,-0.2436,-0.2436,0,0,0,0,0,0,-0.233,-0.2334,-0.2361,-0.2363,-0.2347,-0.2363,-0.2365,-0.2372,-0.2385,-0.2387,-0.2379,-0.2379,-0.2399,-0.2401,-0.2402,-0.2412,-0.241,-0.2411,-0.2411,-0.2436,-0.2436,-0.2437,0,0,0,0,0,0,-0.2329,-0.2332,-0.236,-0.2348,-0.2352,-0.2363,-0.237,-0.2372,-0.2377,-0.2388,-0.239,-0.2382,-0.2399,-0.2401,-0.2411,-0.2413,-0.2411,-0.2412,-0.2436,-0.2436,-0.2436,-0.2433,0,0,0,0,0,0,-0.2328,-0.2332,-0.2336,-0.2348,-0.2353,-0.2369,-0.2371,-0.2373,-0.2379,-0.2379,-0.2391,-0.2393,-0.2399,-0.2409,-0.2412,-0.2414,-0.2413,-0.2436,-0.2436,-0.2436,-0.2432,-0.2433,-0.2433,0,0,0,0,0,-0.2326,-0.2333,-0.2336,-0.2339,-0.2358,-0.2369,-0.2372,-0.2379,-0.2379,-0.2382,-0.2389,-0.2392,-0.2413,-0.241,-0.2413,-0.2416,-0.2436,-0.2436,-0.2436,-0.2432,-0.2433,-0.2433,0,0,0,0,0,0,-0.232,-0.2335,-0.2338,-0.2349,-0.2358,-0.2371,-0.2375,-0.2379,-0.2387,-0.2387,-0.2395,-0.2398,-0.2407,-0.2412,-0.241,-0.2424,-0.2424,-0.2425,-0.242,-0.2421,-0.2421,-0.2419,-0.2413,0,0,0,0,0,-0.232,-0.2329,-0.2341,-0.235,-0.2354,-0.2364,-0.2369,-0.2374,-0.2383,-0.2387,-0.2394,-0.2403,-0.2411,-0.2416,-0.2424,-0.2433,-0.2436,-0.2437,-0.2437,-0.2437,-0.2437,-0.2442,-0.2443,-0.2437,-0.2437,-0.2437,0,0,-0.2319,-0.2329,-0.2334,-0.2349,-0.2356,-0.2364,-0.2367,-0.2376,-0.2382,-0.2388,-0.2398,-0.2403,-0.2413,-0.2422,-0.2427,-0.2427,-0.2439,-0.2437,-0.2437,-0.2438,-0.2442,-0.2443,-0.2443,-0.2438,-0.2438,-0.2438,0,0,-0.2323,-0.2332,-0.234,-0.2347,-0.2358,-0.2365,-0.2366,-0.2378,-0.2383,-0.2393,-0.2398,-0.2404,-0.2418,-0.2425,-0.243,-0.2436,-0.2439,-0.2438,-0.2438,-0.2443,-0.2444,-0.2444,-0.2446,-0.2446,-0.2439,-0.2439,-0.2439,0,-0.2322,-0.2335,-0.2343,-0.2352,-0.2358,-0.2364,-0.2372,-0.2378,-0.2391,-0.2395,-0.2395,-0.2413,-0.242,-0.2431,-0.2432,-0.2436,-0.2438,-0.2437,-0.2443,-0.2443,-0.2444,-0.2446,-0.2446,-0.2438,-0.2439,-0.2439,-0.2439,0,-0.2332,-0.2341,-0.2346,-0.2359,-0.2366,-0.2374,-0.2382,-0.2388,-0.2392,-0.2398,-0.2408,-0.2416,-0.2426,-0.2429,-0.2433,-0.244,-0.244,-0.2441,-0.2442,-0.2444,-0.2446,-0.2447,-0.2438,-0.2438,-0.2438,-0.2438,0,0,-0.2333,-0.235,-0.2352,-0.2358,-0.237,-0.2377,-0.2385,-0.2395,-0.2399,-0.2408,-0.2414,-0.2426,-0.2427,-0.2433,-0.2438,-0.2442,-0.2445,-0.2443,-0.2443,-0.2443,-0.2454,-0.2453,-0.2453,-0.2447,-0.2448,-0.2448,-0.2453,0,-0.2338,-0.2354,-0.2361,-0.2373,-0.2381,-0.2387,-0.2394,-0.2402,-0.2407,-0.2415,-0.2421,-0.2429,-0.243,-0.2433,-0.2438,-0.2444,-0.2448,-0.2444,-0.2453,-0.2453,-0.2451,-0.2454,-0.2453,-0.2458,-0.2454,-0.2454,-0.2454,0,-0.2347,-0.2356,-0.2369,-0.238,-0.2384,-0.239,-0.24,-0.2407,-0.2416,-0.2419,-0.2426,-0.243,-0.2438,-0.2437,-0.2448,-0.2445,-0.2449,-0.2453,-0.2453,-0.2454,-0.2454,-0.2456,-0.2459,-0.246,-0.2455,-0.2455,-0.2455,0,-0.2346,-0.2361,-0.2371,-0.2376,-0.2389,-0.2393,-0.2399,-0.2408,-0.2413,-0.2421,-0.2425,-0.2434,-0.2438,-0.2444,-0.2451,-0.245,-0.2461,-0.2461,-0.2464,-0.2463,-0.2466,-0.2465,-0.247,-0.2468,-0.2468,-0.2468,-0.2468,0,-0.2352,-0.2359,-0.2371,-0.2377,-0.2385,-0.2393,-0.2401,-0.2407,-0.2414,-0.2421,-0.2426,-0.2432,-0.244,-0.2447,-0.2452,-0.246,-0.2462,-0.2464,-0.2466,-0.2464,-0.2464,-0.2467,-0.2467,-0.2468,-0.2468,-0.2468,-0.2468,0,-0.2352,-0.236,-0.2371,-0.2383,-0.2386,-0.2392,-0.2402,-0.2407,-0.2413,-0.2421,-0.2424,-0.2432,-0.2441,-0.2448,-0.2458,-0.2461,-0.2469,-0.2471,-0.2467,-0.2467,-0.247,-0.2469,-0.2477,-0.2478,-0.2475,-0.2475,-0.2475,0,-0.2355,-0.2361,-0.2374,-0.2379,-0.2385,-0.2393,-0.2399,-0.2406,-0.2412,-0.2422,-0.2426,-0.2435,-0.2442,-0.2455,-0.2462,-0.247,-0.2471,-0.2473,-0.2472,-0.247,-0.2471,-0.2471,-0.2471,-0.2473,-0.2473,-0.2473,-0.2473,0,-0.236,-0.2363,-0.2372,-0.2382,-0.2388,-0.2396,-0.2404,-0.2408,-0.2416,-0.2422,-0.2431,-0.2437,-0.2448,-0.2456,-0.2464,-0.2469,-0.2473,-0.2473,-0.2474,-0.2473,-0.247,-0.2472,-0.2467,-0.2473,-0.2473,-0.2473,-0.2473,-0.2473,-0.2362,-0.2367,-0.2377,-0.2386,-0.2393,-0.24,-0.2406,-0.2412,-0.242,-0.243,-0.2433,-0.2442,-0.245,-0.2462,-0.2467,-0.2474,-0.2474,-0.2476,-0.2476,-0.2476,-0.2476,-0.2469,-0.2475,-0.2475,-0.2475,-0.2475,-0.2475,0,-0.2366,-0.2373,-0.2381,-0.2392,-0.2399,-0.2402,-0.2411,-0.2416,-0.2424,-0.2431,-0.2439,-0.2448,-0.2456,-0.2464,-0.2472,-0.2475,-0.2477,-0.2477,-0.2477,-0.2478,-0.2475,-0.2474,-0.2476,-0.2476,-0.2476,-0.2476,-0.2476,-0.2476,-0.237,-0.2379,-0.2384,-0.2396,-0.2403,-0.2412,-0.2417,-0.2423,-0.2429,-0.244,-0.2447,-0.2452,-0.2459,-0.2467,-0.2475,-0.2477,-0.2479,-0.2479,-0.2481,-0.2479,-0.2478,-0.2478,-0.2477,-0.248,-0.248,-0.2484,-0.2484,-0.2484]}]]